Hourly Data Report for September 19, 2017

All times are specified in Local Standard Time (LST). Add 1 hour to adjust for Daylight Saving Time where and when it is observed.

NAPPAN AUTO
NOVA SCOTIA

45°45'34.400" N
64°14'29.200" W
19.80 m
8203702
71311
XNP

Download Data

Hourly Data (September 2017)
Hourly Data Report for September 19, 2017
Temp Definition
°C
Dew Point Temp Definition
°C
Rel Hum Definition
%
Wind Dir Definition
10's deg

Wind Spd Definition
km/h
Visibility Definition
km
Stn Press Definition
kPa
Hmdx Definition


Wind Chill Definition


Weather Definition


TIME
00:00 17.3 16.2 93 17 8   102.30     LegendNANA
01:00 17.1 15.9 93 17 8   102.32     LegendNANA
02:00 16.7 15.7 94 20 7   102.29     LegendNANA
03:00 16.7 15.6 93 21 3   102.23     LegendNANA
04:00 16.5 15.5 94 16 3   102.26     LegendNANA
05:00 16.7 15.6 93 15 9   102.23     LegendNANA
06:00 16.5 15.5 94 15 6   102.28     LegendNANA
07:00 17.1 15.8 92 14 7   102.27     LegendNANA
08:00 17.9 16.1 90 14 8   102.25     LegendNANA
09:00 17.5 16.4 94 14 8   102.26     LegendNANA
10:00 17.7 16.9 95 7 3   102.28     LegendNANA
11:00 18.2 17.4 95 4 4   102.24     LegendNANA
12:00 19.2 17.8 92 14 10   102.19     LegendNANA
13:00 19.6 18.1 91 15 9   102.15     LegendNANA
14:00 20.4 18.5 89 15 4   102.09 27   LegendNANA
15:00 20.7 19.4 92 16 4   102.03 28   LegendNANA
16:00 21.2 19.3 89 16 10   101.97 28   LegendNANA
17:00 21.4 19.4 88 16 12   101.94 28   LegendNANA
18:00 20.9 19.3 91 16 8   101.92 28   LegendNANA
19:00 20.3 19.2 93 16 5   101.94 27   LegendNANA
20:00 20.0 19.2 95 17 4   101.94 27   LegendNANA
21:00 19.7 18.9 95 21 4   101.94     LegendNANA
22:00 20.0 19.0 94 15 3   101.94 27   LegendNANA
23:00 19.8 19.2 97 14 4   101.88     LegendNANA

Notes on Data Quality.

Legend

  • E = Estimated
  • M = Missing
  • NA = Not Available
  • ‡ = Partner data that is not subject to review by the National Climate Archives
Date modified: